Regional Weather Roundup
Issued by NWS

Home | Current Version | Previous Version | Graphics & Text | Print | Product List | Glossary On
Versions: 1 2 3 4 5 6 7 8 9 10 11 12 13 14 15 16 17 18 19 20 21 22 23 24 25 26 27 28 29 30 31 32 33 34 35 36 37 38 39 40 41 42 43 44 45 46 47 48 49 50
000
ASUS43 KDMX 210101
RWRIA

WEATHER ROUNDUP FOR IOWA
NATIONAL WEATHER SERVICE DES MOINES IA
800 PM CDT THU JUL 20 2017

NOTE: "FAIR" INDICATES FEW OR NO CLOUDS BELOW 12,000 FEET WITH NO
SIGNIFICANT WEATHER AND/OR OBSTRUCTIONS TO VISIBILITY.

* - THESE STATIONS ARE NOT NWS STATIONS...THUS NOT UNDER NWS
QUALITY CONTROL.  THEY ALSO DO NOT REPORT WEATHER SUCH
AS PRECIPITATION OR FOG.

IAZ001>003-012>014-020>022-031>034-043>046-210200-
   NORTHWEST IOWA

CITY           SKY/WX    TMP DP  RH WIND       PRES   REMARKS
CARROLL *      HVY RAIN  72  70  94 W43G52    29.96R VSB 1/2
CHEROKEE *     CLOUDY    84  76  79 E8G17     29.91S HX  93
DENISON *      CLOUDY    73  66  78 E12G25    29.92F
ORANGE CITY *  CLEAR     82  75  78 E6        29.93S HX  89
SHELDON *      CLOUDY    82  72  69 E9        29.92F HX  87
SIOUX CITY     CLEAR     81  70  69 SE6       29.91S HX  84
SPENCER        MOCLDY    83  73  72 E12       29.94F HX  89
STORM LAKE *   CLOUDY    81  77  89 E10       29.93F HX  88
$$

IAZ055>058-069>071-079>083-090>094-210200-
   SOUTHWEST IOWA

CITY           SKY/WX    TMP DP  RH WIND       PRES   REMARKS
ATLANTIC *     CLOUDY    86  81  84 CALM      29.92F HX 102
AUDUBON *      LGT RAIN  82  79  89 CALM      29.95S HX  93
CLARINDA *     CLEAR     90  82  79 S6        29.92F HX 111
COUNCIL BLFS * CLEAR     88  81  79 E7        29.92R HX 105
CRESTON *      CLOUDY    88  79  74 S5        29.95S HX 102
HARLAN  *      CLOUDY    84  82  94 CALM      29.95F HX 101
LAMONI         CLEAR     89  80  74 S5        29.93F HX 106
RED OAK *      CLEAR     90  82  79 NE5       29.92R HX 111
SHENANDOAH *   CLEAR     90  82  79 CALM      29.90S HX 111
$$

IAZ047>049-059>061-072>074-084-210200-
   CENTRAL IOWA

CITY           SKY/WX    TMP DP  RH WIND       PRES   REMARKS
AMES           CLOUDY    86  80  82 NE9       29.93S HX 101
ANKENY *       CLOUDY    88  81  79 NE6       29.92R HX 105
BOONE *        CLOUDY    84  79  84 NE10      29.93R HX  96
CHARITON *     CLEAR     91  77  62 SW6       29.93S HX 105
DES MOINES     CLOUDY    95  73  48 W3        29.90F HX 104
GRINNELL*      CLEAR     84  78  82 NE7       29.94S HX  94
KNOXVILLE *    CLOUDY    90  77  66 CALM      29.90F HX 102
MARSHALLTOWN   PTCLDY    84  78  82 E6        29.93F HX  95
NEWTON *       CLOUDY    86  79  79 NE13G20   29.92S HX  99
PELLA *        PTCLDY    90  76  63 E3        29.92F HX 100
PERRY *          N/A     87  83  86 CALM      29.92R HX 108
$$

IAZ004>006-015-016-023>025-035-036-210200-
   NORTH CENTRAL IOWA

CITY           SKY/WX    TMP DP  RH WIND       PRES   REMARKS
ALGONA *       PTCLDY    82  75  78 E9        29.96F HX  89
CLARION *      CLOUDY    81  77  89 NE10      29.97S HX  88
ESTHERVILLE    CLOUDY    80  76  87 E9        29.96F HX  86
FORT DODGE *   CLOUDY    82  73  74 NE6       29.96R HX  88
MASON CITY     CLOUDY    81  73  76 E3        29.99F HX  86
FOREST CITY *    N/A     82  73  74 E5        29.98F HX  88
WEBSTER CITY * MOCLDY    84  75  74 E7        29.92F HX  92
IOWA FALLS *     N/A     83  76  77 NE6       29.99R HX  91
$$

IAZ007>011-017>019-026>030-037>042-050>054-066-210200-
   NORTHEAST IOWA

CITY           SKY/WX    TMP DP  RH WIND       PRES   REMARKS
CEDAR RAPIDS   CLEAR     85  80  85 NE13      29.93F HX  99
CHARLES CITY * CLOUDY    82  77  83 CALM      29.98F HX  91
CLINTON *      PTCLDY    82  79  90 NE7       29.96S HX  92
DECORAH *      CLOUDY    81  73  78 CALM      29.98S HX  85
DUBUQUE        PTCLDY    81  75  82 NE5       29.99R HX  87
MONTICELLO *   CLOUDY    84  77  79 NE3       29.96S HX  94
OELWEIN *      CLOUDY    81  77  89 NE5       29.98F HX  88
WATERLOO       CLOUDY    82  74  76 NE6       29.94F HX  88
$$

IAZ064-065-067-068-078-210200-
   EAST CENTRAL IOWA

CITY           SKY/WX    TMP DP  RH WIND       PRES   REMARKS
DAVENPORT      CLOUDY    83  77  82 NE9       29.97R HX  92
IOWA CITY      PTCLDY    88  80  77 NE9       29.94R HX 104
MUSCATINE *    CLOUDY    88  81  79 NE7       29.92S HX 105
QUAD CITIES    CLOUDY    89  78  70 NE9       29.93R HX 103
$$

IAZ062-063-075>077-085>089-095>099-210200-
   SOUTHEAST IOWA

CITY           SKY/WX    TMP DP  RH WIND       PRES   REMARKS
BURLINGTON     CLOUDY    83  72  69 NW5       29.92S HX  88
FORT MADISON * CLOUDY    90  77  66 N8        29.95R HX 102
KEOKUK *       CLEAR     91  79  66 SW3       29.93S HX 107
OSKALOOSA *    MOCLDY    87  77  72 NE5       29.92S HX  99
OTTUMWA        CLEAR     92  76  59 W5        29.92R HX 104
WASHINGTON *   CLOUDY    84  73  70 SE7       29.93F HX  91
$$

ABBREVIATIONS USED IN REMARKS
   TC - TEMPERATURES IN CELSIUS
  WCI - WIND CHILL INDEX
   HX - HEAT INDEX
  VSB - VISIBILITY
$$





USA.gov is the U.S. government's official web portal to all federal, state and local government web resources and services.